Location: ActonStarParty
(42.4766°N, 71.4538°W)
Time: 07:30:55
(UTC-04:00)

Amateur Radio Satellites - All Passes

Search period start: 29 July 2015 07:00
Search period end: 30 July 2015 07:00
Location: ActonStarParty, 42.4766°N, 71.4538°W

Satellite Date Start Highest point End Downlink Frequencies (MHz)
Time Altitude Azimuth
Cubesat XI-IV 29 Jul 07:01:59 07:07:17 65° 101° (E) 07:12:34 437.490
Cosmos 2499 29 Jul 07:02:22 07:07:46 24° 82° (E) 07:13:43 435.465 / 435.565
AO-7 29 Jul 07:10:35 07:16:35 22° 309° (NW) 07:22:17 29.400- 29.500
CUBESAT XI-V 29 Jul 07:17:19 07:20:47 20° 269° (W) 07:24:07 437.345
BRITE-PL 29 Jul 07:36:27 07:39:20 18° 92° (E) 07:42:28 437.365/2234.400
BEESAT 3 29 Jul 07:43:56 07:45:49 13° 37° (NE) 07:47:48 437.485
M-CUBED/EXP-1 PRIME 29 Jul 07:48:08 07:49:57 13° 56° (NE) 07:52:00 437.505
CUTE-I 29 Jul 07:59:17 08:04:16 41° 291° (WNW) 08:09:11 437.470
STRAND 1 29 Jul 08:00:20 08:04:36 25° 267° (W) 08:08:47 437.568
GOMX 1 29 Jul 08:04:39 08:08:02 22° 93° (E) 08:11:42 467.674
DOVE 4 29 Jul 08:10:36 08:13:18 16° 91° (E) 08:16:15 437.250
PRISM 29 Jul 08:17:11 08:19:40 15° 269° (W) 08:22:00 437.425
AUBIESAT-1 29 Jul 08:19:21 08:22:30 23° 61° (ENE) 08:25:55 437.475
RS-15 29 Jul 08:23:59 08:35:14 52° 248° (WSW) 08:46:42 29.354- 29.394
CUTE 1.7 + AOD 2 29 Jul 08:29:30 08:32:26 18° 91° (E) 08:35:30 437.475
SEEDS 29 Jul 08:32:33 08:35:05 16° 90° (E) 08:37:48 437.485
BEESAT 2 29 Jul 08:35:46 08:39:15 26° 46° (NE) 08:42:43 435.950
CANX-2 29 Jul 08:36:54 08:40:25 24° 93° (E) 08:43:59 2200.000
HO-68 29 Jul 08:39:33 08:45:53 34° 95° (E) 08:52:19 435.675
Cubesat XI-IV 29 Jul 08:43:17 08:46:56 18° 298° (WNW) 08:50:23 437.490
CINEMA 3 29 Jul 08:45:06 08:48:01 17° 90° (E) 08:51:10 145.822/145.860
GONETS M04 29 Jul 08:45:18 08:51:53 22° 299° (WNW) 08:58:05
PCSat 29 Jul 08:45:37 08:48:39 16° 106° (ESE) 08:51:56 145.827
Cosmos 2499 29 Jul 08:52:56 09:00:12 65° 282° (WNW) 09:08:04 435.465 / 435.565
AAUSAT CUBESAT 2 29 Jul 09:07:01 09:10:29 25° 94° (E) 09:14:00 437.432
UNISAT 6 29 Jul 09:09:58 09:11:52 13° 62° (ENE) 09:13:59 437.425
BRITE-PL 29 Jul 09:14:02 09:18:05 42° 287° (WNW) 09:22:21 437.365/2234.400
M-CUBED/EXP-1 PRIME 29 Jul 09:20:14 09:24:08 68° 254° (WSW) 09:28:25 437.505
BEESAT 3 29 Jul 09:20:20 09:24:25 89° 55° (NE) 09:28:24 437.485
SO-50 29 Jul 09:25:41 09:29:15 22° 112° (ESE) 09:33:01 436.795
UWE-3 29 Jul 09:30:22 09:33:28 18° 91° (E) 09:36:44 435.000/436.395/437.385
FUNcube-1 29 Jul 09:37:46 09:40:29 16° 90° (E) 09:43:24 145.935
CUBEBUG 2 29 Jul 09:38:08 09:42:03 28° 95° (E) 09:46:05 437.445
GOMX 1 29 Jul 09:42:14 09:46:19 37° 288° (WNW) 09:50:35 467.674
POLYITAN 1 29 Jul 09:45:12 09:46:32 12° 63° (ENE) 09:48:06 437.675
AIST 2 29 Jul 09:45:38 09:49:26 32° 48° (NE) 09:53:11 435.215
DOVE 4 29 Jul 09:46:59 09:51:22 53° 286° (WNW) 09:56:00 437.250
TIGRISAT 29 Jul 09:52:31 09:56:20 33° 70° (ENE) 10:00:19 435.000
ANTELSAT 29 Jul 09:52:44 09:56:38 34° 70° (ENE) 10:00:40 437.575/2403.000
AUBIESAT-1 29 Jul 09:53:25 09:57:02 33° 259° (W) 10:00:54 437.475
Oscar 11 29 Jul 09:55:39 09:59:45 38° 97° (E) 10:03:50 145.826/435.025
COMPASS 1 29 Jul 09:57:31 10:01:46 74° 284° (WNW) 10:05:57 437.405
POPSAT HIP 1 29 Jul 10:02:12 10:04:53 17° 66° (ENE) 10:07:42 437.405
CUTE 1.7 + AOD 2 29 Jul 10:04:30 10:08:33 40° 288° (WNW) 10:12:33 437.475
SEEDS 29 Jul 10:07:04 10:11:11 46° 287° (WNW) 10:15:14 437.485
QB50P2 29 Jul 10:08:31 10:11:37 21° 67° (ENE) 10:14:48 145.880/145.840
CANX-2 29 Jul 10:12:33 10:16:22 30° 290° (WNW) 10:20:06 2200.000
BEESAT 2 29 Jul 10:13:40 10:17:20 32° 244° (WSW) 10:20:54 435.950
YUBILEINY 29 Jul 10:18:19 10:24:20 21° 60° (ENE) 10:30:45 435.215
CINEMA 3 29 Jul 10:21:02 10:25:31 52° 287° (WNW) 10:30:10 145.822/145.860
DX 1 29 Jul 10:21:13 10:22:56 12° 89° (E) 10:24:53 434.975-435.025
BUGSAT 1 29 Jul 10:24:09 10:26:51 18° 67° (ENE) 10:29:39 437.445
PCSat 29 Jul 10:26:07 10:31:31 74° 301° (WNW) 10:36:58 145.827
HO-68 29 Jul 10:27:00 10:33:51 49° 293° (WNW) 10:40:40 435.675
HUMSAT D 29 Jul 10:28:33 10:31:58 23° 93° (E) 10:35:27 437.325/437.525
DUCHIFAT 1 29 Jul 10:36:06 10:39:56 37° 71° (ENE) 10:43:49 145.980
QB50P1 29 Jul 10:36:41 10:40:35 39° 71° (ENE) 10:44:32 145.935-145.965
NANOSAT C BR1 29 Jul 10:39:16 10:43:12 41° 72° (ENE) 10:47:10 145.865
AAUSAT CUBESAT 2 29 Jul 10:42:25 10:46:04 28° 290° (WNW) 10:49:39 437.432
UNISAT 6 29 Jul 10:43:50 10:48:07 66° 259° (W) 10:52:33 437.425
ZACube-1 29 Jul 10:49:22 10:53:54 87° 288° (WNW) 10:58:30 437.345
DELFI C3 29 Jul 10:51:29 10:55:33 71° 285° (WNW) 10:59:34 145.870
Cosmos 2499 29 Jul 10:52:29 10:55:30 12° 307° (NW) 10:58:04 435.465 / 435.565
Cosmos 2491 29 Jul 10:55:48 10:59:28 14° 76° (ENE) 11:03:45 435.465 / 435.565
SO-50 29 Jul 11:04:50 11:09:29 49° 310° (NW) 11:14:17 436.795
UWE-3 29 Jul 11:05:52 11:10:14 46° 288° (WNW) 11:14:40 435.000/436.395/437.385
50 SAT 29 Jul 11:07:07 11:10:31 27° 95° (E) 11:13:56 437.505
FUNcube-1 29 Jul 11:12:45 11:17:08 51° 287° (WNW) 11:21:33 145.935
CUBEBUG 2 29 Jul 11:14:40 11:18:43 31° 290° (WNW) 11:22:48 437.445
AISAT 29 Jul 11:17:25 11:21:20 31° 96° (E) 11:25:17 437.250
POLYITAN 1 29 Jul 11:17:45 11:21:56 70° 258° (WSW) 11:26:09 437.675
O/OREOS (USA 219) 29 Jul 11:24:03 11:28:11 32° 59° (ENE) 11:32:20 437.305
AIST 2 29 Jul 11:24:20 11:27:55 27° 246° (WSW) 11:31:22 435.215
AIST 1 29 Jul 11:27:15 11:29:14 13° 86° (E) 11:31:26
TIGRISAT 29 Jul 11:29:44 11:33:11 23° 267° (W) 11:36:37 435.000
ANTELSAT 29 Jul 11:30:08 11:33:32 22° 268° (W) 11:36:55 437.575/2403.000
UKube-1 29 Jul 11:32:22 11:36:41 69° 102° (ESE) 11:40:58 .
Oscar 11 29 Jul 11:32:25 11:35:42 21° 293° (WNW) 11:38:52 145.826/435.025
POPSAT HIP 1 29 Jul 11:36:27 11:40:27 43° 262° (W) 11:44:29 437.405
CUBEBUG 1 29 Jul 11:42:00 11:45:52 32° 96° (E) 11:49:46 437.445
QB50P2 29 Jul 11:43:25 11:47:18 35° 263° (W) 11:51:11 145.880/145.840
DX 1 29 Jul 11:55:23 11:59:40 61° 287° (WNW) 12:03:55 434.975-435.025
ESTCUBE 1 29 Jul 11:55:46 12:00:12 55° 100° (E) 12:04:36 437.505/2401.250
VELOX 1 29 Jul 11:57:10 12:01:36 81° 103° (ESE) 12:06:00 145.980
BUGSAT 1 29 Jul 11:58:16 12:02:05 38° 262° (W) 12:05:52 437.445
HUMSAT D 29 Jul 12:03:52 12:07:46 33° 289° (WNW) 12:11:36 437.325/437.525
Oscar 19 29 Jul 12:06:05 12:09:25 18° 63° (ENE) 12:12:55 437.125/150
PCSat 29 Jul 12:12:49 12:15:59 15° 323° (NW) 12:18:58 145.827
DUCHIFAT 1 29 Jul 12:12:53 12:15:55 19° 268° (W) 12:18:50 145.980
QB50P1 29 Jul 12:13:43 12:16:39 18° 269° (W) 12:19:28 145.935-145.965
YUBILEINY 29 Jul 12:13:44 12:22:37 89° 270° (W) 12:31:28 435.215
NANOSAT C BR1 29 Jul 12:16:27 12:19:16 17° 269° (W) 12:21:57 145.865
ZACube-1 29 Jul 12:29:15 12:29:38 10° 298° (WNW) 12:29:47 437.345
SPROUT 29 Jul 12:30:36 12:34:28 32° 96° (E) 12:38:22 437.525
Gurwin Techsat 1B 29 Jul 12:40:51 12:42:49 12° 59° (ENE) 12:45:05 435.225
50 SAT 29 Jul 12:41:45 12:45:00 24° 291° (WNW) 12:48:10 437.505
Cosmos 2491 29 Jul 12:46:15 12:54:59 75° 95° (E) 13:03:43 435.465 / 435.565
SO-50 29 Jul 12:49:34 12:51:17 11° 331° (NNW) 12:52:51 436.795
AISAT 29 Jul 12:54:09 12:57:49 25° 292° (WNW) 13:01:22 437.250
TISAT 1 29 Jul 12:55:16 12:59:10 36° 98° (E) 13:03:05 437.305
Cosmos 2504 29 Jul 13:00:09 13:06:45 26° 66° (ENE) 13:13:48 435.465 / 435.565
AIST 1 29 Jul 13:02:12 13:06:28 53° 281° (WNW) 13:10:44
O/OREOS (USA 219) 29 Jul 13:03:39 13:07:31 26° 256° (WSW) 13:11:18 437.305
UKube-1 29 Jul 13:10:24 13:12:18 12° 298° (WNW) 13:14:01 .
CUBEBUG 1 29 Jul 13:18:36 13:22:06 24° 292° (WNW) 13:25:31 437.445
ITAMSAT 1 29 Jul 13:19:11 13:23:15 24° 65° (ENE) 13:27:26 435.822/435.867
ESTCUBE 1 29 Jul 13:33:52 13:36:39 16° 296° (WNW) 13:39:18 437.505/2401.250
VELOX 1 29 Jul 13:36:16 13:37:34 11° 299° (WNW) 13:38:38 145.980
BEESAT 29 Jul 13:39:04 13:42:24 19° 91° (E) 13:45:53 436.000
Oscar 19 29 Jul 13:43:18 13:48:21 60° 259° (W) 13:53:26 437.125/150
JAS-2 29 Jul 13:43:26 13:47:38 20° 57° (ENE) 13:52:24 435.910
SWISSCUBE 29 Jul 13:58:28 14:02:44 32° 96° (E) 14:07:02 437.505
SPROUT 29 Jul 14:06:58 14:10:24 23° 292° (WNW) 14:13:45 437.525
YUBILEINY 29 Jul 14:12:40 14:18:21 18° 281° (WNW) 14:23:33 435.215
Gurwin Techsat 1B 29 Jul 14:16:46 14:22:04 84° 78° (ENE) 14:27:27 435.225
ITUPSAT 1 29 Jul 14:17:40 14:22:16 45° 99° (E) 14:26:51 437.325
AO-7 29 Jul 14:24:45 14:31:48 33° 58° (ENE) 14:39:01 29.400- 29.500
TISAT 1 29 Jul 14:31:35 14:34:43 20° 293° (WNW) 14:37:45 437.305
Cosmos 2491 29 Jul 14:45:49 14:52:53 25° 297° (WNW) 14:59:38 435.465 / 435.565
Cosmos 2504 29 Jul 14:51:28 14:59:46 72° 266° (W) 15:08:19 435.465 / 435.565
ITAMSAT 1 29 Jul 14:57:30 15:02:30 45° 261° (W) 15:07:31 435.822/435.867
CUSAT 1 29 Jul 15:01:29 15:04:53 30° 77° (ENE) 15:09:13 437.405
STARS 29 Jul 15:03:15 15:05:25 14° 89° (E) 15:07:49 437.465
BEESAT 29 Jul 15:15:56 15:20:32 47° 289° (WNW) 15:25:05 436.000
KKS-1 29 Jul 15:20:51 15:24:56 35° 97° (E) 15:29:03 437.445
HORYU 2 29 Jul 15:25:10 15:29:27 49° 72° (ENE) 15:33:47 437.375
JAS-2 29 Jul 15:25:59 15:31:54 76° 258° (WSW) 15:38:41 435.910
SWISSCUBE 29 Jul 15:36:26 15:40:31 28° 293° (WNW) 15:44:32 437.505
ITUPSAT 1 29 Jul 15:56:15 15:59:53 21° 295° (WNW) 16:03:21 437.325
Gurwin Techsat 1B 29 Jul 16:00:39 16:02:52 12° 274° (W) 16:04:45 435.225
DANDE 29 Jul 16:01:37 16:05:03 85° 80° (E) 16:09:37 436.750
AO-7 29 Jul 16:15:52 16:24:11 63° 257° (WSW) 16:32:29 29.400- 29.500
STARS 29 Jul 16:37:56 16:42:18 57° 287° (WNW) 16:46:37 437.465
CUSAT 1 29 Jul 16:44:14 16:47:22 21° 264° (W) 16:51:04 437.405
Cosmos 2504 29 Jul 16:46:46 16:50:47 14° 283° (WNW) 16:54:13 435.465 / 435.565
Cubesat XI-IV 29 Jul 16:47:20 16:50:29 16° 61° (ENE) 16:53:50 437.490
GONETS M04 29 Jul 16:54:40 17:02:49 43° 72° (ENE) 17:11:03
KKS-1 29 Jul 16:57:51 17:01:25 23° 293° (WNW) 17:04:52 437.445
HORYU 2 29 Jul 17:03:35 17:06:25 16° 270° (W) 17:09:06 437.375
JAS-2 29 Jul 17:17:04 17:18:36 11° 281° (W) 17:19:39 435.910
MOZHAYETS 4 29 Jul 17:25:51 17:30:32 88° 284° (WNW) 17:35:09
PCSat 29 Jul 17:30:57 17:34:43 19° 41° (NE) 17:38:37 145.827
CUTE-I 29 Jul 17:41:52 17:46:57 47° 70° (ENE) 17:52:06 437.470
SO-50 29 Jul 17:55:35 17:59:50 28° 43° (NE) 18:04:05 436.795
AO-7 29 Jul 18:16:50 18:18:55 11° 278° (W) 18:20:12 29.400- 29.500
Cubesat XI-IV 29 Jul 18:24:39 18:30:02 74° 257° (WSW) 18:35:26 437.490
STRAND 1 29 Jul 18:32:16 18:34:12 12° 87° (E) 18:36:27 437.568
Cosmos 2499 29 Jul 18:42:09 18:50:30 50° 74° (ENE) 18:59:06 435.465 / 435.565
VERMONT LUNAR 29 Jul 18:47:49 18:48:57 12° 150° (SSE) 18:50:10 437.305
BRITE-PL 29 Jul 18:48:24 18:51:47 22° 69° (ENE) 18:55:08 437.365/2234.400
GONETS M04 29 Jul 18:51:38 18:59:43 43° 272° (W) 19:07:42
MOZHAYETS 4 29 Jul 19:06:08 19:07:05 10° 299° (WNW) 19:07:45
HO-68 29 Jul 19:09:29 19:15:15 28° 60° (ENE) 19:21:11 435.675
CUBESAT XI-V 29 Jul 19:11:43 19:16:21 81° 284° (WNW) 19:20:56 437.345
PCSat 29 Jul 19:13:25 19:18:52 82° 242° (WSW) 19:24:17 145.827
GOMX 1 29 Jul 19:14:13 19:17:33 23° 69° (ENE) 19:20:55 467.674
DOVE 4 29 Jul 19:17:56 19:20:20 16° 66° (ENE) 19:22:54 437.250
CUTE-I 29 Jul 19:23:00 19:27:18 23° 268° (W) 19:31:29 437.470
CUTE 1.7 + AOD 2 29 Jul 19:23:42 19:26:07 15° 65° (ENE) 19:28:43 437.475
SEEDS 29 Jul 19:26:09 19:28:05 13° 64° (ENE) 19:30:11 437.485
CANX-2 29 Jul 19:30:53 19:33:58 20° 67° (ENE) 19:37:10 2200.000
SO-50 29 Jul 19:35:52 19:40:36 45° 243° (WSW) 19:45:12 436.795
CINEMA 3 29 Jul 19:48:42 19:50:58 15° 65° (ENE) 19:53:25 145.822/145.860
PRISM 29 Jul 19:56:36 20:00:44 73° 102° (ESE) 20:04:49 437.425
AAUSAT CUBESAT 2 29 Jul 19:58:48 20:01:46 19° 67° (ENE) 20:04:52 437.432
STRAND 1 29 Jul 20:09:00 20:14:08 79° 285° (WNW) 20:19:13 437.568
VERMONT LUNAR 29 Jul 20:22:13 20:25:12 38° 165° (SSE) 20:28:11 437.305
BRITE-PL 29 Jul 20:26:09 20:30:14 33° 263° (W) 20:34:06 437.365/2234.400
UWE-3 29 Jul 20:29:12 20:31:33 15° 65° (ENE) 20:34:07 435.000/436.395/437.385
FUNcube-1 29 Jul 20:35:18 20:37:15 13° 64° (ENE) 20:39:24 145.935
Cosmos 2499 29 Jul 20:35:39 20:43:32 39° 273° (W) 20:51:24 435.465 / 435.565
CUBEBUG 2 29 Jul 20:37:40 20:40:57 23° 68° (ENE) 20:44:21 437.445
RS-15 29 Jul 20:38:36 20:46:46 27° 104° (ESE) 20:55:35 29.354- 29.394
COMPASS 1 29 Jul 20:48:51 20:53:03 80° 77° (ENE) 20:57:19 437.405
Oscar 11 29 Jul 20:51:05 20:54:55 33° 70° (ENE) 20:58:51 145.826/435.025
GOMX 1 29 Jul 20:51:51 20:55:39 29° 264° (W) 20:59:18 467.674
DOVE 4 29 Jul 20:53:47 20:57:50 45° 262° (W) 21:01:49 437.250
HO-68 29 Jul 20:55:31 21:02:34 61° 258° (WSW) 21:09:40 435.675
CUTE 1.7 + AOD 2 29 Jul 20:57:30 21:01:39 52° 261° (W) 21:05:52 437.475
SEEDS 29 Jul 20:59:12 21:03:23 62° 259° (W) 21:07:38 437.485
PCSat 29 Jul 21:00:18 21:01:32 11° 257° (WSW) 21:02:23 145.827
CANX-2 29 Jul 21:05:40 21:09:39 38° 263° (W) 21:13:40 2200.000
DX 1 29 Jul 21:17:53 21:19:50 13° 63° (ENE) 21:21:59 434.975-435.025
HUMSAT D 29 Jul 21:21:36 21:24:20 18° 66° (ENE) 21:27:13 437.325/437.525
CINEMA 3 29 Jul 21:23:48 21:27:49 49° 261° (W) 21:31:54 145.822/145.860
PHONESAT 2.4 29 Jul 21:27:24 21:30:21 25° 157° (SSE) 21:33:19 2401.200-2431.200
AAUSAT CUBESAT 2 29 Jul 21:33:12 21:37:08 38° 263° (W) 21:41:04 437.432
AUBIESAT-1 29 Jul 21:33:24 21:36:36 18° 95° (E) 21:39:54 437.475
PRISM 29 Jul 21:34:30 21:35:38 11° 298° (WNW) 21:36:34 437.425
ISS 29 Jul 21:37:21 21:40:01 24° 136° (SE) 21:42:44 145.825
DELFI C3 29 Jul 21:38:45 21:42:47 74° 76° (ENE) 21:46:53 145.870
ZACube-1 29 Jul 21:45:55 21:50:05 78° 76° (ENE) 21:54:21 437.345
STRAND 1 29 Jul 21:51:10 21:52:34 11° 302° (WNW) 21:53:41 437.568
50 SAT 29 Jul 21:52:17 21:54:48 17° 67° (ENE) 21:57:27 437.505
VERMONT LUNAR 29 Jul 21:58:37 22:01:46 61° 181° (S) 22:04:54 437.305
UWE-3 29 Jul 22:03:40 22:07:43 50° 261° (W) 22:11:52 435.000/436.395/437.385
FUNcube-1 29 Jul 22:09:00 22:13:06 59° 260° (W) 22:17:19 145.935
CUBEBUG 2 29 Jul 22:13:49 22:17:31 30° 265° (W) 22:21:16 437.445
AISAT 29 Jul 22:15:50 22:19:41 31° 69° (ENE) 22:23:35 437.250
UKube-1 29 Jul 22:27:32 22:31:47 63° 74° (ENE) 22:36:05 .
Oscar 11 29 Jul 22:27:41 22:31:11 23° 267° (W) 22:34:36 145.826/435.025
M-CUBED/EXP-1 PRIME 29 Jul 22:34:41 22:39:32 86° 112° (ESE) 22:44:17 437.505
UNISAT 6 29 Jul 22:35:17 22:39:08 25° 94° (E) 22:43:04 437.425
CUBEBUG 1 29 Jul 22:38:49 22:42:35 30° 69° (ENE) 22:46:24 437.445
RS-15 29 Jul 22:47:02 22:58:00 82° 305° (NW) 23:09:24 29.354- 29.394
DX 1 29 Jul 22:51:18 22:55:37 65° 258° (WSW) 22:59:56 434.975-435.025
VELOX 1 29 Jul 22:55:06 22:59:31 78° 75° (ENE) 23:03:56 145.980
ESTCUBE 1 29 Jul 22:55:47 23:00:12 55° 73° (ENE) 23:04:40 437.505/2401.250
HUMSAT D 29 Jul 22:55:53 22:59:47 40° 262° (W) 23:03:45 437.325/437.525
Cosmos 2491 29 Jul 22:56:08 23:04:03 38° 70° (ENE) 23:12:03 435.465 / 435.565
POLYITAN 1 29 Jul 23:03:19 23:06:13 18° 92° (E) 23:09:15 437.675
PHONESAT 2.4 29 Jul 23:04:33 23:08:01 58° 173° (S) 23:11:28 2401.200-2431.200
AUBIESAT-1 29 Jul 23:06:58 23:11:37 53° 292° (WNW) 23:16:10 437.475
AIST 1 29 Jul 23:08:43 23:12:41 37° 76° (ENE) 23:16:40
ISS 29 Jul 23:13:11 23:16:19 44° 332° (NNW) 23:19:28 145.825
BEESAT 3 29 Jul 23:15:14 23:17:12 14° 111° (ESE) 23:19:20 437.485
TIGRISAT 29 Jul 23:19:14 23:23:54 69° 101° (E) 23:28:35 435.000
ANTELSAT 29 Jul 23:19:48 23:24:30 73° 102° (ESE) 23:29:12 437.575/2403.000
POPSAT HIP 1 29 Jul 23:20:59 23:24:37 27° 95° (E) 23:28:17 437.405
YUBILEINY 29 Jul 23:21:49 23:27:42 22° 80° (E) 23:34:00 435.215
50 SAT 29 Jul 23:25:30 23:29:08 37° 263° (W) 23:32:47 437.505
SPROUT 29 Jul 23:25:32 23:29:08 28° 69° (ENE) 23:32:49 437.525
QB50P2 29 Jul 23:27:46 23:31:38 33° 97° (E) 23:35:32 145.880/145.840
VERMONT LUNAR 29 Jul 23:35:23 23:38:19 34° 197° (SSW) 23:41:12 437.305
BUGSAT 1 29 Jul 23:39:44 23:43:09 26° 95° (E) 23:46:38 437.445
TISAT 1 29 Jul 23:48:05 23:51:43 30° 70° (ENE) 23:55:25 437.305
AISAT 29 Jul 23:52:36 23:56:18 25° 266° (W) 23:59:54 437.250
DUCHIFAT 1 29 Jul 23:55:14 23:59:27 64° 101° (E) 00:03:40 145.980
QB50P1 29 Jul 23:56:22 00:00:37 69° 101° (ESE) 00:04:52 145.935-145.965
NANOSAT C BR1 29 Jul 23:58:44 00:02:59 72° 102° (ESE) 00:07:13 145.865
UKube-1 30 Jul 00:06:38 00:08:25 12° 271° (W) 00:09:58 .
BEESAT 2 30 Jul 00:07:09 00:10:55 37° 117° (ESE) 00:14:46 435.950
M-CUBED/EXP-1 PRIME 30 Jul 00:11:13 00:13:40 14° 304° (NW) 00:15:55 437.505
UNISAT 6 30 Jul 00:11:43 00:15:57 35° 290° (WNW) 00:20:11 437.425
CUBEBUG 1 30 Jul 00:15:16 00:18:57 25° 266° (W) 00:22:33 437.445
ESTCUBE 1 30 Jul 00:34:46 00:37:28 15° 271° (W) 00:39:59 437.505/2401.250
POLYITAN 1 30 Jul 00:38:18 00:42:19 40° 289° (WNW) 00:46:19 437.675
PHONESAT 2.4 30 Jul 00:42:24 00:45:50 54° 190° (S) 00:49:15 2401.200-2431.200
BEESAT 30 Jul 00:46:07 00:49:56 25° 66° (ENE) 00:53:51 436.000
AIST 1 30 Jul 00:47:09 00:50:05 18° 272° (W) 00:52:52
BEESAT 3 30 Jul 00:50:41 00:54:42 59° 306° (NW) 00:58:46 437.485
ISS 30 Jul 00:51:03 00:53:21 17° 352° (N) 00:55:39 145.825
Cosmos 2491 30 Jul 00:52:53 01:01:10 49° 270° (W) 01:09:21 435.465 / 435.565
POPSAT HIP 1 30 Jul 00:56:49 01:00:25 27° 291° (WNW) 01:03:59 437.405
TIGRISAT 30 Jul 00:57:37 01:00:09 14° 297° (WNW) 01:02:31 435.000
ANTELSAT 30 Jul 00:58:21 01:00:45 14° 297° (WNW) 01:02:58 437.575/2403.000
SPROUT 30 Jul 01:01:34 01:05:12 26° 266° (W) 01:08:47 437.525
RS-15 30 Jul 01:02:49 01:12:28 32° 334° (NNW) 01:22:20 29.354- 29.394
QB50P2 30 Jul 01:04:00 01:07:21 22° 293° (WNW) 01:10:37 145.880/145.840
SWISSCUBE 30 Jul 01:05:30 01:09:58 41° 70° (ENE) 01:14:29 437.505
YUBILEINY 30 Jul 01:14:54 01:23:37 80° 279° (W) 01:32:26 435.215
BUGSAT 1 30 Jul 01:15:11 01:18:34 25° 291° (WNW) 01:21:54 437.445
AIST 2 30 Jul 01:21:51 01:25:58 52° 119° (ESE) 01:30:08 435.215
TISAT 1 30 Jul 01:24:08 01:27:31 23° 266° (W) 01:30:50 437.305
ITUPSAT 1 30 Jul 01:24:54 01:29:37 57° 72° (ENE) 01:34:21 437.325
DUCHIFAT 1 30 Jul 01:32:50 01:34:47 13° 297° (WNW) 01:36:34 145.980
QB50P1 30 Jul 01:34:17 01:35:59 12° 297° (WNW) 01:37:29 145.935-145.965
Cosmos 2504 30 Jul 01:35:10 01:38:34 15° 78° (ENE) 01:42:31 435.465 / 435.565
NANOSAT C BR1 30 Jul 01:36:48 01:38:18 11° 297° (WNW) 01:39:35 145.865
O/OREOS (USA 219) 30 Jul 01:37:09 01:41:05 31° 105° (ESE) 01:45:05 437.305
BEESAT 2 30 Jul 01:45:39 01:49:06 24° 315° (NW) 01:52:29 435.950
Oscar 19 30 Jul 01:54:07 01:59:05 45° 98° (E) 02:04:03 437.125/150
STARS 30 Jul 02:01:15 02:03:30 14° 63° (ENE) 02:05:56 437.465
KKS-1 30 Jul 02:19:38 02:23:38 35° 70° (ENE) 02:27:41 437.445
PHONESAT 2.4 30 Jul 02:20:43 02:23:26 21° 206° (SSW) 02:26:08 2401.200-2431.200
BEESAT 30 Jul 02:23:08 02:27:37 38° 263° (W) 02:32:04 436.000
ISS 30 Jul 02:28:12 02:30:39 19° 12° (NNE) 02:33:08 145.825
Gurwin Techsat 1B 30 Jul 02:32:42 02:37:23 32° 95° (E) 02:42:08 435.225
JAS-2 30 Jul 02:35:06 02:40:19 20° 86° (E) 02:45:53 435.910
SWISSCUBE 30 Jul 02:44:12 02:48:01 22° 267° (W) 02:51:42 437.505
MOZHAYETS 4 30 Jul 02:54:58 02:56:07 11° 61° (ENE) 02:57:32
AIST 2 30 Jul 03:01:37 03:04:51 20° 318° (NW) 03:08:02 435.215
ITUPSAT 1 30 Jul 03:04:52 03:07:55 16° 270° (W) 03:10:48 437.325
ITAMSAT 1 30 Jul 03:09:25 03:14:33 61° 101° (E) 03:19:40 435.822/435.867
YUBILEINY 30 Jul 03:16:39 03:22:13 17° 303° (WNW) 03:27:22 435.215
O/OREOS (USA 219) 30 Jul 03:16:42 03:20:32 27° 303° (WNW) 03:24:21 437.305
RS-15 30 Jul 03:21:01 03:29:43 24° 8° (N) 03:38:48 29.354- 29.394
Cosmos 2504 30 Jul 03:22:33 03:29:37 88° 93° (E) 03:37:14 435.465 / 435.565
Oscar 19 30 Jul 03:34:04 03:38:12 24° 295° (WNW) 03:42:12 437.125/150
STARS 30 Jul 03:35:12 03:39:31 59° 259° (W) 03:43:51 437.465
KKS-1 30 Jul 03:56:53 04:00:22 22° 267° (W) 04:03:48 437.445
ISS 30 Jul 04:04:19 04:07:34 64° 31° (NNE) 04:10:48 145.825
CUSAT 1 30 Jul 04:11:33 04:13:59 22° 97° (E) 04:16:12 437.405
Gurwin Techsat 1B 30 Jul 04:12:37 04:17:23 34° 292° (WNW) 04:22:06 435.225
AO-7 30 Jul 04:16:48 04:24:38 44° 99° (E) 04:32:30 29.400- 29.500
JAS-2 30 Jul 04:18:28 04:26:18 87° 284° (WNW) 04:34:08 435.910
MOZHAYETS 4 30 Jul 04:28:04 04:32:42 88° 257° (WSW) 04:37:23
CUBESAT XI-V 30 Jul 04:41:22 04:43:12 12° 62° (ENE) 04:45:15 437.345
ITAMSAT 1 30 Jul 04:50:03 04:53:38 19° 298° (WNW) 04:57:03 435.822/435.867
HORYU 2 30 Jul 04:51:56 04:56:28 88° 284° (WNW) 05:00:58 437.375
DANDE 30 Jul 05:15:28 05:18:57 63° 280° (W) 05:21:47 436.750
Cosmos 2504 30 Jul 05:18:27 05:23:11 17° 301° (WNW) 05:27:46 435.465 / 435.565
RS-15 30 Jul 05:35:09 05:46:10 46° 40° (NE) 05:57:43 29.354- 29.394
ISS 30 Jul 05:41:35 05:43:42 16° 227° (SW) 05:45:44 145.825
STRAND 1 30 Jul 05:48:01 05:51:46 21° 64° (ENE) 05:55:39 437.568
GONETS M04 30 Jul 05:56:27 06:04:35 48° 89° (E) 06:12:50
CUTE-I 30 Jul 05:59:23 06:02:43 17° 89° (E) 06:06:15 437.470
JAS-2 30 Jul 06:04:55 06:10:27 21° 302° (WNW) 06:15:46 435.910
AO-7 30 Jul 06:09:40 06:17:29 45° 298° (WNW) 06:25:10 29.400- 29.500
CUBESAT XI-V 30 Jul 06:15:23 06:20:04 79° 258° (WSW) 06:24:46 437.345
HORYU 2 30 Jul 06:31:55 06:32:27 10° 300° (WNW) 06:32:43 437.375
Cubesat XI-IV 30 Jul 06:41:28 06:46:31 42° 98° (E) 06:51:33 437.490
PRISM 30 Jul 06:46:53 06:50:59 57° 74° (ENE) 06:55:06 437.425
